TimePDT,TemperatureF,Dew PointF,Humidity,Sea Level PressureIn,VisibilityMPH,Wind Direction,Wind SpeedMPH,Gust SpeedMPH,PrecipitationIn,Events,Conditions,WindDirDegrees,DateUTC
12:55 AM,54.0,52.0,93,29.94,10.0,Calm,Calm,-,N/A,,Clear,0,2013-09-03 07:55:00
1:55 AM,53.1,51.1,93,29.94,10.0,SE,4.6,-,N/A,,Clear,130,2013-09-03 08:55:00
2:55 AM,53.1,51.1,93,29.95,10.0,SE,3.5,-,N/A,,Mostly Cloudy,130,2013-09-03 09:55:00
3:55 AM,54.0,52.0,93,29.94,10.0,Calm,Calm,-,N/A,,Overcast,0,2013-09-03 10:55:00
4:55 AM,53.1,51.1,93,29.95,10.0,SE,3.5,-,N/A,,Overcast,140,2013-09-03 11:55:00
5:55 AM,52.0,50.0,93,29.94,10.0,SE,3.5,-,N/A,,Clear,130,2013-09-03 12:55:00
6:55 AM,52.0,50.0,93,29.95,10.0,Calm,Calm,-,N/A,,Partly Cloudy,0,2013-09-03 13:55:00
7:55 AM,54.0,52.0,93,29.97,10.0,ESE,3.5,-,N/A,,Overcast,110,2013-09-03 14:55:00
8:55 AM,57.9,55.0,90,29.97,10.0,ESE,3.5,-,N/A,,Overcast,120,2013-09-03 15:55:00
9:55 AM,63.0,57.9,84,29.98,10.0,ESE,5.8,-,N/A,,Mostly Cloudy,110,2013-09-03 16:55:00
10:55 AM,66.0,55.9,70,29.98,10.0,Calm,Calm,-,N/A,,Mostly Cloudy,0,2013-09-03 17:55:00
11:55 AM,70.0,57.0,63,29.99,10.0,WSW,8.1,-,N/A,,Partly Cloudy,240,2013-09-03 18:55:00
12:55 PM,70.0,55.9,61,29.99,10.0,SW,11.5,-,N/A,,Partly Cloudy,230,2013-09-03 19:55:00
1:55 PM,71.1,57.0,61,30.00,10.0,SW,13.8,-,N/A,,Scattered Clouds,230,2013-09-03 20:55:00
2:55 PM,71.1,59.0,66,30.00,10.0,WSW,15.0,-,N/A,,Scattered Clouds,240,2013-09-03 21:55:00
3:55 PM,69.1,57.9,68,30.00,10.0,SW,11.5,-,N/A,,Overcast,230,2013-09-03 22:55:00
4:55 PM,69.1,57.9,68,30.00,10.0,WSW,13.8,-,N/A,,Overcast,250,2013-09-03 23:55:00
5:55 PM,66.0,57.9,75,30.00,10.0,WSW,8.1,-,N/A,,Scattered Clouds,250,2013-09-04 00:55:00
6:55 PM,64.9,59.0,81,30.00,10.0,WSW,6.9,-,N/A,,Mostly Cloudy,250,2013-09-04 01:55:00
7:55 PM,62.1,57.9,86,29.99,10.0,WSW,3.5,-,N/A,,Clear,250,2013-09-04 02:55:00
8:55 PM,62.1,57.9,86,30.01,10.0,Calm,Calm,-,N/A,,Clear,0,2013-09-04 03:55:00
9:55 PM,57.9,55.9,93,30.01,10.0,Calm,Calm,-,N/A,,Clear,0,2013-09-04 04:55:00
10:55 PM,57.0,55.9,96,30.02,10.0,Calm,Calm,-,N/A,,Clear,0,2013-09-04 05:55:00
11:55 PM,57.0,55.0,93,30.02,10.0,Calm,Calm,-,N/A,,Clear,0,2013-09-04 06:55:00